[[{"header":{"parameterUnit":"m.s-1","parameterCategory":1,"la1":30.2991,"la2":30.254,"lo1":-89.0895,"lo2":-89.0444,"dy":0.0017,"dx":0.0017,"nx":28,"ny":28,"refTime":"2024-03-29T21:00:00:Z","depth":0,"parameterNumber":2,"parameterNumberName":"U-component_of_WINDS"},"data":[0,0,0,0,0,0,0,0,0,0,0,0,0,0,0,0,0,0,0,0,0,0,0,0,0,0,0,0,0,0,0,0,0,0,0,0,0,0,0,0,0,0,0,0,0,0,0,0,0,0,0,0,0,0,0,0,0,0,-1.004,-1.0041,0,-1.0082,-1.0083,-1.0083,-1.0098,-1.0098,-1.0098,-1.0098,-1.0142,-1.0143,-1.0144,0,0,0,0,0,0,0,0,0,0,0,0,0,-0.9974,-0.9975,-1.004,-1.0041,-1.0041,-1.0082,-1.0083,-1.0083,-1.0098,-1.0098,-1.0098,-1.0097,-1.0141,-1.0143,-1.0144,0,0,0,0,0,0,0,0,0,0,0,0,0,-1.0008,-0.9976,-1.004,-1.0054,-1.0055,-1.0082,-1.0083,-1.0084,-1.0098,-1.0098,-1.0098,-1.0097,-1.0141,-1.0143,-1.0145,-1.0162,0,0,-1.0151,-1.0152,0,0,0,0,0,0,0,0,-1.0006,-1.0011,-1.0051,-1.0053,-1.0055,-1.0085,-1.0076,-1.011,-1.0098,-1.0082,-1.0098,-1.0097,-1.0123,-1.0126,-1.0135,-1.0164,-1.0166,-1.0151,-1.0152,-1.0153,-1.0154,0,0,0,0,0,0,0,-1.0004,-1.0009,-1.0057,-1.0052,-1.0054,-1.0058,-1.0062,-1.0082,-1.0103,-1.0083,-1.0084,-1.0089,-1.0124,-1.0133,-1.0136,-1.0167,-1.0151,-1.0153,-1.0154,-1.0155,-1.0212,-1.0212,0,0,0,0,0,0,-0.9999,-1.0007,-1.0056,-1.0058,-1.0029,-1.0059,-1.0064,-1.0075,-1.0103,-1.0107,-1.0089,-1.009,-1.013,-1.0134,-1.0138,-1.016,-1.0153,-1.0155,-1.0156,-1.0211,-1.0212,-1.0212,0,0,0,0,0,0,-0.9998,-1.0003,-1.0054,-1.0033,-1.004,-1.0061,-1.0073,-1.0076,-1.0085,-1.0108,-1.0112,-1.0095,-1.013,-1.0135,-1.0156,-1.0161,-1.0156,-1.0158,-1.0211,-1.0212,-1.0212,-1.0203,0,0,0,0,0,0,-0.9996,-1.0003,-1.0009,-1.0033,-1.0041,-1.0071,-1.0073,-1.0077,-1.0089,-1.0089,-1.0114,-1.0117,-1.013,-1.0153,-1.0158,-1.0164,-1.0159,-1.0211,-1.0211,-1.0212,-1.0203,-1.0204,-1.0204,0,0,0,0,0,-0.9993,-1.0005,-1.0009,-1.0015,-1.0049,-1.0071,-1.0076,-1.0089,-1.0089,-1.0096,-1.011,-1.0117,-1.016,-1.0155,-1.016,-1.0167,-1.021,-1.0211,-1.0212,-1.0203,-1.0204,-1.0204,0,0,0,0,0,0,-0.9982,-1.0009,-1.0013,-1.0034,-1.005,-1.0074,-1.0083,-1.0089,-1.0106,-1.0107,-1.0123,-1.0129,-1.0148,-1.016,-1.0154,-1.0186,-1.0186,-1.0187,-1.0177,-1.0177,-1.0178,-1.0174,-1.0161,0,0,0,0,0,-0.9982,-0.9997,-1.002,-1.0035,-1.0043,-1.0062,-1.0072,-1.0081,-1.0099,-1.0106,-1.0122,-1.0139,-1.0156,-1.0168,-1.0185,-1.0205,-1.0211,-1.0213,-1.0213,-1.0213,-1.0215,-1.0226,-1.0227,-1.0215,-1.0215,-1.0215,0,0,-0.9982,-0.9999,-1.0007,-1.0034,-1.0047,-1.0063,-1.0067,-1.0084,-1.0096,-1.0108,-1.0129,-1.0141,-1.0162,-1.0182,-1.0192,-1.0193,-1.0219,-1.0214,-1.0214,-1.0215,-1.0227,-1.0228,-1.0229,-1.0215,-1.0215,-1.0215,0,0,-0.999,-1.0004,-1.0018,-1.0032,-1.0052,-1.0064,-1.0068,-1.0091,-1.0099,-1.012,-1.0129,-1.0144,-1.0174,-1.0188,-1.0199,-1.0212,-1.0219,-1.0217,-1.0219,-1.023,-1.0231,-1.0232,-1.0236,-1.0238,-1.0219,-1.0219,-1.0219,0,-0.9988,-1.0011,-1.0025,-1.0041,-1.0052,-1.0064,-1.0079,-1.0092,-1.0117,-1.0125,-1.0125,-1.0162,-1.0177,-1.0201,-1.0204,-1.0213,-1.0217,-1.0215,-1.0229,-1.023,-1.0231,-1.0236,-1.0238,-1.0218,-1.0219,-1.0219,-1.0219,0,-1.0007,-1.0024,-1.0033,-1.0056,-1.0069,-1.0084,-1.0101,-1.0112,-1.012,-1.0132,-1.0153,-1.0171,-1.0192,-1.0198,-1.0206,-1.0223,-1.0223,-1.0226,-1.0226,-1.0232,-1.0237,-1.0239,-1.0218,-1.0218,-1.0218,-1.0218,0,0,-1.001,-1.004,-1.0044,-1.0054,-1.0078,-1.0091,-1.0107,-1.0127,-1.0136,-1.0153,-1.0167,-1.0192,-1.0195,-1.0207,-1.0217,-1.0227,-1.0236,-1.0229,-1.023,-1.0229,-1.0256,-1.0253,-1.0255,-1.0241,-1.0241,-1.0241,-1.0254,0,-1.0021,-1.0049,-1.0062,-1.0085,-1.01,-1.0111,-1.0125,-1.0141,-1.0153,-1.0168,-1.0181,-1.0198,-1.0201,-1.0208,-1.0218,-1.0233,-1.0241,-1.0232,-1.0254,-1.0254,-1.0248,-1.0257,-1.0255,-1.0266,-1.0256,-1.0256,-1.0256,0,-1.0038,-1.0054,-1.0078,-1.0099,-1.0106,-1.0118,-1.0138,-1.0152,-1.017,-1.0178,-1.0192,-1.0201,-1.0219,-1.0218,-1.0242,-1.0236,-1.0245,-1.0254,-1.0255,-1.0257,-1.0256,-1.026,-1.0269,-1.0271,-1.0259,-1.0259,-1.0259,0,-1.0037,-1.0065,-1.0083,-1.0092,-1.0117,-1.0125,-1.0137,-1.0155,-1.0166,-1.0183,-1.0191,-1.021,-1.022,-1.0235,-1.0249,-1.0247,-1.0272,-1.0273,-1.0279,-1.0279,-1.0284,-1.0284,-1.0295,-1.029,-1.029,-1.029,-1.029,0,-1.0048,-1.0062,-1.0083,-1.0094,-1.011,-1.0125,-1.0141,-1.0153,-1.0169,-1.0183,-1.0194,-1.0207,-1.0225,-1.024,-1.0252,-1.027,-1.0275,-1.0282,-1.0285,-1.0281,-1.028,-1.0287,-1.0287,-1.0291,-1.0291,-1.0291,-1.0291,0,-1.005,-1.0064,-1.0085,-1.0107,-1.0113,-1.0124,-1.0143,-1.0154,-1.0166,-1.0184,-1.0188,-1.0208,-1.0226,-1.0242,-1.0266,-1.0274,-1.0293,-1.0297,-1.0287,-1.0288,-1.0294,-1.0293,-1.0311,-1.0314,-1.0307,-1.0307,-1.0307,0,-1.0056,-1.0067,-1.009,-1.01,-1.011,-1.0126,-1.0137,-1.0152,-1.0164,-1.0185,-1.0194,-1.0213,-1.0229,-1.0258,-1.0275,-1.0294,-1.0298,-1.0302,-1.03,-1.0296,-1.0298,-1.0297,-1.0298,-1.0302,-1.0302,-1.0302,-1.0302,0,-1.0065,-1.0072,-1.0087,-1.0105,-1.0118,-1.0133,-1.0148,-1.0156,-1.0174,-1.0186,-1.0205,-1.0217,-1.0242,-1.0261,-1.0281,-1.0293,-1.0301,-1.0303,-1.0305,-1.0302,-1.0295,-1.0299,-1.0287,-1.0302,-1.0302,-1.0302,-1.0302,-1.0302,-1.007,-1.008,-1.0097,-1.0114,-1.0127,-1.0141,-1.0153,-1.0166,-1.0181,-1.0202,-1.021,-1.0229,-1.0248,-1.0276,-1.0288,-1.0303,-1.0304,-1.0308,-1.0309,-1.031,-1.0309,-1.0293,-1.0307,-1.0307,-1.0307,-1.0307,-1.0307,0,-1.0079,-1.0091,-1.0106,-1.0127,-1.014,-1.0146,-1.0163,-1.0174,-1.019,-1.0206,-1.0222,-1.0243,-1.0261,-1.0279,-1.0298,-1.0307,-1.0311,-1.0312,-1.0311,-1.0314,-1.0307,-1.0303,-1.0308,-1.0308,-1.0308,-1.0308,-1.0308,-1.0308,-1.0086,-1.0103,-1.0112,-1.0136,-1.0148,-1.0166,-1.0175,-1.0188,-1.0201,-1.0224,-1.0239,-1.025,-1.0267,-1.0288,-1.0305,-1.031,-1.0316,-1.0316,-1.0321,-1.0315,-1.0314,-1.0314,-1.031,-1.0317,-1.0317,-1.0327,-1.0327,-1.0327]},{"header":{"parameterUnit":"m.s-1","parameterCategory":1,"la1":30.2991,"la2":30.254,"lo1":-89.0895,"lo2":-89.0444,"dy":0.0017,"dx":0.0017,"nx":28,"ny":28,"refTime":"2024-03-29T21:00:00:Z","depth":0,"parameterNumber":3,"parameterNumberName":"V-component_of_WINDS"},"data":[0,0,0,0,0,0,0,0,0,0,0,0,0,0,0,0,0,0,0,0,0,0,0,0,0,0,0,0,0,0,0,0,0,0,0,0,0,0,0,0,0,0,0,0,0,0,0,0,0,0,0,0,0,0,0,0,0,0,3.2418,3.2419,0,3.25,3.2501,3.2501,3.2483,3.2481,3.248,3.2478,3.2558,3.2561,3.2565,0,0,0,0,0,0,0,0,0,0,0,0,0,3.2242,3.2245,3.2418,3.2419,3.242,3.2499,3.2501,3.2502,3.2483,3.2481,3.2479,3.2478,3.2556,3.2561,3.2565,0,0,0,0,0,0,0,0,0,0,0,0,0,3.232,3.2246,3.2418,3.242,3.2421,3.2499,3.2501,3.2502,3.2483,3.2481,3.2479,3.2477,3.2555,3.256,3.2565,3.2644,0,0,3.2582,3.2584,0,0,0,0,0,0,0,0,3.2316,3.2327,3.2419,3.242,3.2422,3.2479,3.2467,3.255,3.2484,3.246,3.2478,3.2476,3.2533,3.254,3.256,3.2648,3.2651,3.2582,3.2585,3.2588,3.2589,0,0,0,0,0,0,0,3.231,3.2323,3.245,3.242,3.2422,3.2416,3.2425,3.2483,3.2508,3.2462,3.2461,3.2471,3.2533,3.2555,3.2562,3.2653,3.2582,3.2587,3.259,3.2592,3.2809,3.2811,0,0,0,0,0,0,3.2304,3.2319,3.2447,3.2453,3.2362,3.2421,3.2431,3.2463,3.2507,3.2512,3.2473,3.247,3.2547,3.2556,3.2565,3.2659,3.2588,3.2593,3.2596,3.2806,3.2809,3.2812,0,0,0,0,0,0,3.2301,3.2316,3.2444,3.2385,3.2401,3.2427,3.2463,3.2465,3.2487,3.2516,3.252,3.2491,3.2546,3.2557,3.2625,3.2662,3.2595,3.26,3.2803,3.2807,3.281,3.285,0,0,0,0,0,0,3.2296,3.2315,3.2346,3.2386,3.2404,3.2504,3.2465,3.2469,3.2497,3.2494,3.2534,3.2538,3.2545,3.2617,3.263,3.2668,3.2604,3.28,3.2805,3.2809,3.2846,3.2855,3.2863,0,0,0,0,0,3.2289,3.2353,3.2348,3.2363,3.2444,3.2507,3.2517,3.2525,3.25,3.2531,3.2549,3.2537,3.2656,3.2624,3.2639,3.2679,3.2797,3.2803,3.2809,3.2842,3.2853,3.2863,0,0,0,0,0,0,3.2315,3.2358,3.2353,3.2432,3.2466,3.2503,3.2543,3.2536,3.2577,3.2572,3.2578,3.2587,3.2656,3.2674,3.2638,3.2757,3.2723,3.2732,3.2743,3.2754,3.2762,3.2756,3.2608,0,0,0,0,0,3.233,3.2379,3.2413,3.248,3.2497,3.2517,3.2544,3.2548,3.2582,3.2596,3.2619,3.2653,3.2697,3.2727,3.2769,3.2848,3.2856,3.2883,3.2891,3.2898,3.2906,3.2948,3.296,3.2831,3.2831,3.2831,0,0,3.2361,3.2391,3.2421,3.2486,3.2512,3.2561,3.2529,3.2582,3.2618,3.2604,3.2669,3.2688,3.2725,3.2798,3.2832,3.2815,3.2943,3.2906,3.2911,3.2915,3.2955,3.2967,3.2978,3.2835,3.2834,3.2833,0,0,3.2443,3.2471,3.2529,3.2557,3.2598,3.2611,3.2625,3.2664,3.2676,3.2742,3.2732,3.2774,3.2852,3.2879,3.2902,3.2994,3.2984,3.3008,3.3052,3.3094,3.3104,3.3113,3.3145,3.3156,3.3015,3.3016,3.3016,0,3.2476,3.2551,3.2559,3.2613,3.2641,3.2633,3.2691,3.2717,3.2769,3.2788,3.2769,3.2866,3.2891,3.297,3.2993,3.3013,3.3028,3.3003,3.3102,3.3111,3.312,3.315,3.3162,3.3018,3.3018,3.3018,3.3017,0,3.2589,3.264,3.2682,3.2735,3.2768,3.2823,3.2839,3.2871,3.2871,3.2886,3.2953,3.2982,3.303,3.305,3.305,3.3129,3.3117,3.31,3.3066,3.3134,3.3163,3.3175,3.3022,3.3021,3.302,3.302,0,0,3.2688,3.2746,3.2761,3.2784,3.2829,3.2869,3.2924,3.2972,3.2999,3.3036,3.3081,3.3147,3.3132,3.3158,3.3162,3.3198,3.3268,3.3176,3.3177,3.3192,3.3356,3.3368,3.3382,3.3262,3.3264,3.3266,3.3353,0,3.2774,3.2872,3.2881,3.2969,3.3016,3.3008,3.3056,3.3088,3.3103,3.3144,3.3159,3.3206,3.3183,3.3199,3.3234,3.3252,3.3301,3.3246,3.3302,3.3304,3.3293,3.3397,3.341,3.349,3.3364,3.3366,3.3367,0,3.2886,3.2927,3.302,3.3058,3.3078,3.3121,3.3167,3.3206,3.3242,3.325,3.3281,3.3279,3.3334,3.3298,3.3373,3.3336,3.336,3.3372,3.3375,3.338,3.3339,3.3404,3.3516,3.3528,3.3385,3.3384,3.3382,0,3.2949,3.3027,3.3093,3.3113,3.316,3.319,3.321,3.3244,3.3273,3.3312,3.333,3.3375,3.3399,3.3433,3.3443,3.3416,3.3517,3.3482,3.3524,3.3524,3.3545,3.3544,3.3663,3.3562,3.3562,3.3562,3.3561,0,3.3042,3.3099,3.3122,3.3162,3.3225,3.3234,3.3296,3.3314,3.3344,3.3387,3.3383,3.3422,3.3433,3.3475,3.3483,3.3543,3.3554,3.3561,3.3563,3.3562,3.3561,3.3577,3.3571,3.3565,3.3564,3.3563,3.3563,0,3.3123,3.314,3.3211,3.325,3.3261,3.3305,3.3338,3.3375,3.339,3.3444,3.3457,3.3479,3.3528,3.3541,3.3599,3.3604,3.3675,3.3672,3.3664,3.3663,3.3704,3.37,3.3837,3.3855,3.3743,3.3744,3.3745,0,3.3181,3.3225,3.3269,3.3298,3.332,3.3366,3.3396,3.3407,3.3437,3.3481,3.3514,3.3562,3.3601,3.3679,3.3699,3.3743,3.374,3.3785,3.3746,3.3744,3.374,3.3737,3.3741,3.3792,3.3793,3.3794,3.3795,0,3.3283,3.3289,3.3333,3.338,3.3415,3.3452,3.3488,3.3511,3.3527,3.3561,3.3612,3.3642,3.3702,3.3749,3.3794,3.3813,3.3806,3.3807,3.3819,3.3818,3.3811,3.3815,3.3683,3.3803,3.3803,3.3802,3.3801,3.3801,3.3354,3.3392,3.3429,3.3477,3.3505,3.3538,3.3576,3.3596,3.3638,3.3689,3.3692,3.3746,3.378,3.3839,3.3861,3.3903,3.389,3.3907,3.3911,3.3915,3.3919,3.3805,3.3911,3.3911,3.3911,3.3911,3.391,0,3.3454,3.3478,3.3523,3.3573,3.3611,3.3603,3.3641,3.3673,3.3721,3.3754,3.3793,3.385,3.3897,3.3921,3.3966,3.3995,3.3993,3.4006,3.4004,3.4008,3.3928,3.3913,3.4007,3.4007,3.4007,3.4007,3.4007,3.4007,3.3511,3.3576,3.3587,3.3664,3.3687,3.3741,3.3764,3.3794,3.382,3.3885,3.3924,3.394,3.3969,3.4017,3.4058,3.4064,3.408,3.4096,3.41,3.4024,3.4014,3.4005,3.3991,3.4099,3.4099,3.4176,3.4177,3.4178]}]]